When you browse on this site, cookies collect data to enhance your experience and personalize the content and advertising you see.
Visit our Privacy Policy to learn more. By continuing to use the site, you agree to this use of cookies and data.
EN

Hourly Weather Perth

Today, 21 September, Monday

Time Temperature Precipitation Wind Pressure Humidity
00:00 +12°C° 0 mm 4 mps 763 mmHg 71%
01:00 +12°C° 0 mm 4 mps 763 mmHg 71%
02:00 +12°C° 0 mm 4 mps 764 mmHg 69%
03:00 +12°C° 0 mm 4 mps 764 mmHg 71%
04:00 +12°C° 0 mm 4 mps 764 mmHg 72%
05:00 +12°C° 0 mm 3 mps 764 mmHg 73%
06:00 +12°C° 0 mm 3 mps 764 mmHg 72%
07:00 +12°C° 0 mm 3 mps 764 mmHg 70%
08:00 +13°C° 0 mm 3 mps 764 mmHg 69%
09:00 +14°C° 0 mm 3 mps 764 mmHg 64%
10:00 +15°C° 0 mm 4 mps 764 mmHg 60%
11:00 +17°C° 0 mm 4 mps 764 mmHg 55%
12:00 +17°C° 0 mm 4 mps 764 mmHg 56%
13:00 +16°C° 0 mm 5 mps 764 mmHg 56%
14:00 +16°C° 0 mm 5 mps 764 mmHg 57%
15:00 +16°C° 0 mm 5 mps 764 mmHg 59%
16:00 +15°C° 0 mm 4 mps 764 mmHg 61%
17:00 +15°C° 0 mm 4 mps 764 mmHg 63%
18:00 +14°C° 0 mm 4 mps 764 mmHg 67%
19:00 +14°C° 0 mm 3 mps 765 mmHg 70%
20:00 +15°C° 0 mm 2 mps 765 mmHg 74%
21:00 +15°C° 0 mm 2 mps 765 mmHg 75%
22:00 +15°C° 0 mm 2 mps 765 mmHg 76%
23:00 +15°C° 0 mm 2 mps 765 mmHg 77%

Tomorrow, 22 September, Tuesday

Time Temperature Precipitation Wind Pressure Humidity
00:00 +15°C° 0.1 mm 2 mps 765 mmHg 79%
01:00 +15°C° 0.1 mm 2 mps 764 mmHg 81%
02:00 +14°C° 0.1 mm 2 mps 764 mmHg 82%
03:00 +15°C° 0.3 mm 2 mps 764 mmHg 83%
04:00 +15°C° 0.3 mm 2 mps 764 mmHg 84%
05:00 +15°C° 0.3 mm 2 mps 764 mmHg 85%
06:00 +15°C° 0.2 mm 2 mps 764 mmHg 82%
07:00 +16°C° 0.2 mm 2 mps 765 mmHg 80%
08:00 +17°C° 0.2 mm 2 mps 765 mmHg 77%
09:00 +18°C° 0.1 mm 2 mps 765 mmHg 71%
10:00 +19°C° 0.1 mm 3 mps 765 mmHg 64%
11:00 +20°C° 0.1 mm 3 mps 765 mmHg 57%
12:00 +20°C° 0 mm 4 mps 765 mmHg 55%
13:00 +20°C° 0 mm 4 mps 764 mmHg 54%
14:00 +20°C° 0 mm 4 mps 764 mmHg 52%
15:00 +20°C° 0 mm 4 mps 764 mmHg 54%
16:00 +19°C° 0 mm 4 mps 764 mmHg 57%
17:00 +18°C° 0 mm 4 mps 765 mmHg 60%
18:00 +17°C° 0 mm 3 mps 765 mmHg 64%
19:00 +16°C° 0 mm 3 mps 765 mmHg 68%
20:00 +14°C° 0 mm 3 mps 766 mmHg 72%
21:00 +14°C° 0 mm 2 mps 766 mmHg 74%
22:00 +13°C° 0 mm 2 mps 766 mmHg 76%
23:00 +13°C° 0 mm 2 mps 767 mmHg 78%

Day after tomorrow, 23 September, Wednesday

Time Temperature Precipitation Wind Pressure Humidity
00:00 +13°C° 0 mm 2 mps 767 mmHg 79%
01:00 +12°C° 0 mm 2 mps 766 mmHg 80%
02:00 +12°C° 0 mm 2 mps 766 mmHg 80%
03:00 +12°C° 0 mm 2 mps 766 mmHg 81%
04:00 +12°C° 0 mm 2 mps 766 mmHg 81%
05:00 +10°C° 0 mm 2 mps 766 mmHg 82%
06:00 +12°C° 0 mm 2 mps 766 mmHg 78%
07:00 +13°C° 0 mm 2 mps 766 mmHg 74%
08:00 +15°C° 0 mm 2 mps 766 mmHg 71%
09:00 +17°C° 0 mm 2 mps 766 mmHg 63%
10:00 +19°C° 0 mm 2 mps 766 mmHg 55%
11:00 +23°C° 0 mm 2 mps 766 mmHg 48%
12:00 +23°C° 0 mm 2 mps 765 mmHg 46%
13:00 +24°C° 0 mm 2 mps 765 mmHg 44%
14:00 +25°C° 0 mm 2 mps 764 mmHg 42%
15:00 +24°C° 0 mm 2 mps 764 mmHg 46%
16:00 +24°C° 0 mm 3 mps 764 mmHg 50%
17:00 +22°C° 0 mm 3 mps 764 mmHg 55%
18:00 +21°C° 0 mm 3 mps 764 mmHg 59%
19:00 +20°C° 0 mm 3 mps 764 mmHg 63%
20:00 +18°C° 0 mm 3 mps 764 mmHg 67%
21:00 +18°C° 0 mm 3 mps 764 mmHg 64%
22:00 +18°C° 0 mm 4 mps 764 mmHg 60%
23:00 +17°C° 0 mm 4 mps 763 mmHg 57%

24 September, Thursday

Time Temperature Precipitation Wind Pressure Humidity
00:00 +16°C° 0 mm 5 mps 763 mmHg 55%
01:00 +16°C° 0 mm 6 mps 763 mmHg 54%
02:00 +16°C° 0 mm 6 mps 762 mmHg 52%
03:00 +16°C° 0 mm 6 mps 762 mmHg 53%
04:00 +16°C° 0 mm 6 mps 762 mmHg 53%
05:00 +15°C° 0 mm 6 mps 762 mmHg 53%
06:00 +16°C° 0 mm 6 mps 762 mmHg 53%
07:00 +16°C° 0 mm 7 mps 762 mmHg 53%
08:00 +16°C° 0 mm 7 mps 762 mmHg 53%
09:00 +18°C° 0 mm 7 mps 761 mmHg 49%
10:00 +21°C° 0 mm 7 mps 761 mmHg 46%
11:00 +23°C° 0 mm 7 mps 760 mmHg 43%
12:00 +24°C° 0 mm 7 mps 759 mmHg 42%
13:00 +27°C° 0 mm 6 mps 758 mmHg 41%
14:00 +28°C° 0 mm 6 mps 757 mmHg 40%
15:00 +27°C° 0 mm 6 mps 757 mmHg 42%
16:00 +27°C° 0 mm 5 mps 757 mmHg 43%
17:00 +26°C° 0 mm 5 mps 757 mmHg 45%
18:00 +25°C° 0 mm 5 mps 757 mmHg 47%
19:00 +23°C° 0 mm 4 mps 757 mmHg 50%
20:00 +21°C° 0 mm 4 mps 757 mmHg 52%
21:00 +20°C° 0 mm 4 mps 758 mmHg 54%
22:00 +19°C° 0 mm 5 mps 758 mmHg 55%
23:00 +17°C° 0 mm 5 mps 758 mmHg 57%

25 September, Friday

Time Temperature Precipitation Wind Pressure Humidity
00:00 +17°C° 0 mm 5 mps 758 mmHg 58%
01:00 +16°C° 0 mm 5 mps 758 mmHg 59%
02:00 +16°C° 0 mm 5 mps 758 mmHg 60%
03:00 +15°C° 0 mm 5 mps 758 mmHg 62%
04:00 +15°C° 0 mm 5 mps 758 mmHg 63%
05:00 +15°C° 0 mm 4 mps 758 mmHg 65%
06:00 +15°C° 0 mm 4 mps 758 mmHg 69%
07:00 +17°C° 0 mm 4 mps 758 mmHg 73%
08:00 +17°C° 0 mm 4 mps 759 mmHg 77%
09:00 +19°C° 0 mm 4 mps 758 mmHg 71%
10:00 +20°C° 0 mm 4 mps 758 mmHg 66%
11:00 +22°C° 0 mm 4 mps 758 mmHg 60%
12:00 +22°C° 0 mm 5 mps 758 mmHg 60%
13:00 +22°C° 0 mm 5 mps 757 mmHg 60%
14:00 +22°C° 0 mm 6 mps 757 mmHg 59%
15:00 +22°C° 0 mm 5 mps 757 mmHg 63%
16:00 +21°C° 0 mm 5 mps 757 mmHg 66%
17:00 +20°C° 0 mm 5 mps 757 mmHg 70%
18:00 +19°C° 0 mm 4 mps 758 mmHg 72%
19:00 +19°C° 0 mm 4 mps 758 mmHg 73%
20:00 +18°C° 0 mm 3 mps 759 mmHg 75%
21:00 +18°C° 0 mm 3 mps 759 mmHg 77%
22:00 +17°C° 0 mm 3 mps 759 mmHg 79%
23:00 +17°C° 0 mm 3 mps 759 mmHg 80%

26 September, Saturday

Time Temperature Precipitation Wind Pressure Humidity
00:00 +17°C° 0.1 mm 3 mps 759 mmHg 82%
01:00 +15°C° 0.1 mm 4 mps 759 mmHg 83%
02:00 +15°C° 0.1 mm 4 mps 759 mmHg 84%
03:00 +15°C° 0.1 mm 4 mps 759 mmHg 85%
04:00 +16°C° 0.1 mm 3 mps 759 mmHg 85%
05:00 +14°C° 0.1 mm 3 mps 759 mmHg 85%
06:00 +16°C° 0.1 mm 3 mps 759 mmHg 80%
07:00 +17°C° 0.1 mm 3 mps 760 mmHg 76%
08:00 +18°C° 0.1 mm 4 mps 760 mmHg 72%
09:00 +18°C° 0.1 mm 4 mps 760 mmHg 68%
10:00 +19°C° 0.1 mm 4 mps 760 mmHg 65%
11:00 +19°C° 0.1 mm 5 mps 760 mmHg 61%
12:00 +20°C° 0 mm 5 mps 760 mmHg 58%
13:00 +20°C° 0 mm 5 mps 760 mmHg 55%
14:00 +20°C° 0 mm 5 mps 760 mmHg 52%
15:00 +20°C° 0 mm 4 mps 760 mmHg 55%
16:00 +19°C° 0 mm 4 mps 760 mmHg 57%
17:00 +19°C° 0 mm 4 mps 760 mmHg 60%
18:00 +18°C° 0 mm 3 mps 760 mmHg 65%
19:00 +17°C° 0 mm 2 mps 761 mmHg 69%
20:00 +15°C° 0 mm 1 mps 761 mmHg 73%
21:00 +15°C° 0 mm 1 mps 761 mmHg 74%
22:00 +15°C° 0 mm 1 mps 762 mmHg 74%
23:00 +15°C° 0 mm 1 mps 762 mmHg 75%
Show more